Date,TemperatureHighF,TemperatureAvgF,TemperatureLowF,DewpointHighF,DewpointAvgF,DewpointLowF,HumidityHigh,HumidityAvg,HumidityLow,PressureMaxIn,PressureMinIn,WindSpeedMaxMPH,WindSpeedAvgMPH,GustSpeedMaxMPH,PrecipitationSumIn
2013-4-1,44.0,33.8,24.0,28.6,21.0,16.8,89,62,35,30.16,29.85,9,4,17,0.00
2013-4-2,46.9,31.5,18.2,25.2,17.6,11.2,91,61,24,30.28,30.16,10,3,18,0.00
2013-4-3,46.6,33.6,19.1,23.9,17.9,13.9,88,55,28,30.43,30.27,10,2,14,0.00
2013-4-4,60.3,41.7,23.6,27.2,22.4,18.5,82,52,24,30.31,29.95,8,2,15,0.00
2013-4-5,49.2,40.9,32.1,33.1,26.9,21.3,86,59,35,30.18,29.96,12,5,20,0.00
2013-4-6,71.1,53.3,33.1,49.3,35.1,26.7,81,53,30,30.13,29.59,18,9,32,0.04
2013-4-7,63.1,50.8,40.4,49.5,41.8,35.1,89,73,45,29.89,29.61,13,5,21,0.00
2013-4-8,73.2,56.7,42.4,58.6,49.6,37.0,96,78,55,29.91,29.62,23,8,33,0.50
2013-4-9,79.2,57.2,44.9,63.5,50.5,42.6,92,80,50,29.92,29.74,17,7,28,0.00
2013-4-10,46.5,43.0,40.1,44.9,41.7,38.8,97,95,93,29.91,29.72,15,7,24,0.73
2013-4-11,54.4,47.0,40.9,53.8,45.6,38.4,98,95,89,29.81,29.53,13,7,24,0.36
2013-4-12,44.4,39.7,37.0,40.9,36.3,33.8,94,88,80,29.85,29.56,18,9,28,0.03
2013-4-13,49.3,40.6,35.1,36.9,33.8,31.3,93,78,54,29.96,29.84,14,5,20,0.01
2013-4-14,73.1,54.1,40.6,54.8,44.0,35.8,86,70,43,29.96,29.63,16,8,25,0.00
2013-4-15,67.3,56.0,47.0,58.4,51.5,45.6,97,85,64,29.94,29.65,16,5,24,0.81
2013-4-16,57.0,48.0,42.9,45.9,41.3,36.7,96,79,52,30.22,29.89,8,2,12,0.25
2013-4-17,55.2,47.6,42.5,54.1,43.7,35.3,97,87,71,30.22,29.73,16,7,23,1.03
2013-4-18,63.5,56.7,43.0,62.0,55.2,38.5,98,95,82,29.82,29.39,21,8,28,2.22
2013-4-19,42.6,38.1,34.9,38.4,32.9,30.4,89,82,75,29.92,29.49,25,12,35,0.00
2013-4-20,46.0,37.9,29.9,32.9,29.3,27.0,91,72,48,30.39,29.92,8,3,14,0.00
2013-4-21,53.2,41.9,29.9,37.6,31.6,26.0,86,68,48,30.50,30.30,18,8,24,0.00
2013-4-22,66.3,51.5,35.6,44.0,38.8,32.7,89,65,37,30.30,30.01,12,5,18,0.00
2013-4-23,58.8,49.9,39.1,53.5,46.2,37.5,96,88,71,30.01,29.82,9,4,15,0.54
2013-4-24,51.2,42.3,36.9,39.8,36.0,32.9,96,80,52,30.12,29.87,10,4,16,0.05
2013-4-25,52.6,44.2,35.4,38.9,33.9,29.8,89,68,44,30.30,30.06,12,5,20,0.00
2013-4-26,67.1,51.3,35.9,49.9,41.0,30.3,88,69,47,30.33,30.22,12,4,20,0.00
2013-4-27,67.9,54.9,38.9,51.7,45.1,37.7,97,73,40,30.26,29.95,14,4,21,0.03
2013-4-28,65.1,56.9,51.2,57.2,54.0,49.8,97,90,74,29.95,29.77,6,1,7,0.02
2013-4-29,73.6,61.0,46.9,58.9,53.9,45.8,98,79,56,29.89,29.74,13,5,21,0.00
2013-4-30,85.3,70.5,58.1,64.4,58.9,53.5,86,68,43,29.89,29.76,13,6,22,0.00